[[{"header":{"parameterUnit":"m.s-1","parameterCategory":1,"la1":30.2991,"la2":30.254,"lo1":-89.0895,"lo2":-89.0444,"dy":0.0017,"dx":0.0017,"nx":28,"ny":28,"refTime":"2024-06-17T21:00:00:Z","depth":0,"parameterNumber":2,"parameterNumberName":"U-component_of_WINDS"},"data":[0,0,0,0,0,0,0,0,0,0,0,0,0,0,0,0,0,0,0,0,0,0,0,0,0,0,0,0,0,0,0,0,0,0,0,0,0,0,0,0,0,0,0,0,0,0,0,0,0,0,0,0,0,0,0,0,0,0,-9.4979,-9.4979,0,-9.4986,-9.4986,-9.4986,-9.4744,-9.4737,-9.4731,-9.4725,-9.473,-9.4736,-9.4742,0,0,0,0,0,0,0,0,0,0,0,0,0,-9.4755,-9.476,-9.4979,-9.4979,-9.4979,-9.4986,-9.4986,-9.4986,-9.4745,-9.4737,-9.4729,-9.4722,-9.4728,-9.4735,-9.4742,0,0,0,0,0,0,0,0,0,0,0,0,0,-9.4816,-9.4762,-9.4979,-9.486,-9.4849,-9.4986,-9.4986,-9.4986,-9.4746,-9.4737,-9.4727,-9.4718,-9.4725,-9.4734,-9.4744,-9.4994,0,0,-9.4772,-9.4776,0,0,0,0,0,0,0,0,-9.4813,-9.4825,-9.4877,-9.4868,-9.4857,-9.4854,-9.4909,-9.4989,-9.4749,-9.4785,-9.4724,-9.4713,-9.4779,-9.4783,-9.4806,-9.4995,-9.4995,-9.4773,-9.4778,-9.4782,-9.4785,0,0,0,0,0,0,0,-9.4809,-9.4823,-9.4982,-9.4878,-9.4866,-9.4805,-9.4803,-9.4923,-9.4836,-9.4781,-9.4764,-9.4768,-9.4771,-9.4797,-9.4804,-9.4995,-9.4772,-9.478,-9.4786,-9.479,-9.5388,-9.5397,0,0,0,0,0,0,-9.4821,-9.4821,-9.4981,-9.4982,-9.4811,-9.4817,-9.4815,-9.4865,-9.4834,-9.482,-9.4776,-9.4757,-9.4786,-9.4793,-9.4803,-9.5092,-9.4782,-9.4791,-9.4796,-9.5377,-9.539,-9.5401,0,0,0,0,0,0,-9.4818,-9.4838,-9.4981,-9.4897,-9.491,-9.4831,-9.4889,-9.487,-9.4895,-9.4831,-9.4814,-9.4819,-9.4779,-9.479,-9.4948,-9.5089,-9.4795,-9.4803,-9.5365,-9.5381,-9.5396,-9.5674,0,0,0,0,0,0,-9.4812,-9.4838,-9.4933,-9.4901,-9.4916,-9.5127,-9.4898,-9.4877,-9.4912,-9.4887,-9.4866,-9.4853,-9.4772,-9.4936,-9.4957,-9.5096,-9.481,-9.5352,-9.5372,-9.5391,-9.5651,-9.5697,-9.5735,0,0,0,0,0,-9.4805,-9.5011,-9.4939,-9.496,-9.5033,-9.5136,-9.5144,-9.5047,-9.4925,-9.5018,-9.4977,-9.4854,-9.5072,-9.4954,-9.4976,-9.512,-9.5343,-9.5367,-9.5389,-9.5632,-9.5688,-9.5734,0,0,0,0,0,0,-9.5061,-9.5005,-9.4924,-9.5126,-9.5138,-9.5095,-9.521,-9.511,-9.5156,-9.513,-9.5007,-9.5005,-9.5182,-9.5167,-9.5038,-9.536,-9.5185,-9.5214,-9.5362,-9.5414,-9.5456,-9.5453,-9.4818,0,0,0,0,0,-9.5141,-9.523,-9.5176,-9.536,-9.537,-9.5291,-9.5331,-9.5256,-9.5263,-9.5266,-9.5236,-9.5247,-9.5317,-9.5365,-9.5427,-9.565,-9.564,-9.576,-9.5802,-9.5837,-9.5862,-9.5976,-9.6027,-9.5477,-9.5477,-9.5477,0,0,-9.5307,-9.5287,-9.5351,-9.5411,-9.541,-9.5504,-9.5295,-9.5404,-9.5471,-9.5282,-9.5428,-9.5408,-9.5412,-9.5603,-9.5685,-9.5596,-9.6012,-9.5866,-9.5895,-9.59,-9.6005,-9.6057,-9.6103,-9.5493,-9.549,-9.5488,0,0,-9.5655,-9.5652,-9.5802,-9.5807,-9.581,-9.5756,-9.5794,-9.5766,-9.5745,-9.5891,-9.575,-9.5829,-9.5954,-9.5961,-9.5982,-9.6337,-9.6224,-9.6361,-9.6578,-9.6691,-9.6734,-9.6772,-9.6894,-9.694,-9.6387,-9.6387,-9.6388,0,-9.586,-9.5996,-9.5892,-9.601,-9.6039,-9.5874,-9.6025,-9.6035,-9.6059,-9.6082,-9.5983,-9.6134,-9.6126,-9.6315,-9.6402,-9.6425,-9.6461,-9.6359,-9.6736,-9.6773,-9.6807,-9.6922,-9.6969,-9.6403,-9.6402,-9.64,-9.6398,0,-9.6246,-9.6343,-9.6465,-9.6491,-9.6535,-9.667,-9.6585,-9.6642,-9.6564,-9.6521,-9.6671,-9.6655,-9.6709,-9.675,-9.6675,-9.6929,-9.6873,-9.6758,-9.6578,-9.6877,-9.6983,-9.7027,-9.6427,-9.6421,-9.6416,-9.6412,0,0,-9.6751,-9.6721,-9.6767,-9.6776,-9.6769,-9.6841,-9.6968,-9.7022,-9.7071,-9.7095,-9.7196,-9.7306,-9.7199,-9.7223,-9.7148,-9.7248,-9.7526,-9.7119,-9.7117,-9.7191,-9.7801,-9.7884,-9.7937,-9.7453,-9.7461,-9.7468,-9.7799,0,-9.7086,-9.73,-9.7211,-9.7432,-9.7519,-9.7365,-9.7475,-9.7483,-9.7447,-9.7514,-9.7474,-9.7552,-9.7407,-9.742,-9.7513,-9.7472,-9.7645,-9.7448,-9.7543,-9.7548,-9.7542,-9.7993,-9.8082,-9.8394,-9.784,-9.7847,-9.7852,0,-9.7504,-9.7544,-9.7775,-9.7751,-9.7784,-9.7885,-9.7926,-9.7994,-9.7999,-9.7966,-9.7994,-9.7897,-9.8018,-9.7845,-9.8009,-9.7877,-9.7911,-9.7898,-9.7908,-9.7908,-9.7714,-9.8002,-9.8492,-9.8537,-9.7917,-9.7912,-9.7908,0,-9.7844,-9.7956,-9.8108,-9.8121,-9.8099,-9.8173,-9.8167,-9.8163,-9.8201,-9.8238,-9.8261,-9.8313,-9.834,-9.8382,-9.8301,-9.8182,-9.8476,-9.8296,-9.8449,-9.8451,-9.8513,-9.8509,-9.9011,-9.8545,-9.8544,-9.8543,-9.8542,0,-9.8223,-9.837,-9.826,-9.8353,-9.8511,-9.8409,-9.8569,-9.8546,-9.8544,-9.8629,-9.8501,-9.8583,-9.8474,-9.8546,-9.8484,-9.8628,-9.8642,-9.8617,-9.8598,-9.8625,-9.8628,-9.8642,-9.8617,-9.8556,-9.8553,-9.855,-9.8548,0,-9.8627,-9.8561,-9.8715,-9.8682,-9.8677,-9.8796,-9.8766,-9.885,-9.8807,-9.8916,-9.8936,-9.8867,-9.8945,-9.887,-9.8944,-9.8902,-9.9093,-9.9045,-9.9091,-9.9076,-9.9231,-9.9216,-9.9756,-9.982,-9.9318,-9.9323,-9.9327,0,-9.8871,-9.898,-9.896,-9.9007,-9.9009,-9.9089,-9.9127,-9.9032,-9.9076,-9.9091,-9.9173,-9.9241,-9.9288,-9.942,-9.9376,-9.9432,-9.9381,-9.9567,-9.9388,-9.9412,-9.9378,-9.9371,-9.938,-9.9601,-9.9607,-9.9612,-9.9616,0,-9.931,-9.9272,-9.9332,-9.9382,-9.9432,-9.9466,-9.949,-9.9537,-9.9438,-9.9495,-9.9573,-9.9611,-9.9687,-9.9754,-9.9797,-9.9789,-9.9687,-9.9674,-9.9711,-9.9737,-9.9758,-9.9744,-9.9185,-9.966,-9.9656,-9.9652,-9.965,-9.9648,-9.9638,-9.9727,-9.9726,-9.9797,-9.9806,-9.9832,-9.9908,-9.9875,-9.9939,-9.9993,-9.9933,-10.0029,-10.0031,-10.0077,-10.0083,-10.0155,-10.0077,-10.0132,-10.0145,-10.0159,-10.018,-9.9752,-10.0163,-10.0162,-10.0161,-10.016,-10.0159,0,-10.0066,-10.0059,-10.0126,-10.0164,-10.022,-10.0121,-10.0143,-10.0196,-10.0281,-10.0293,-10.0344,-10.0433,-10.0499,-10.0462,-10.0518,-10.0583,-10.0537,-10.06,-10.0591,-10.0591,-10.0249,-10.0209,-10.0636,-10.0636,-10.0636,-10.0636,-10.0636,-10.0636,-10.0295,-10.0438,-10.0401,-10.0548,-10.0539,-10.0631,-10.0652,-10.0675,-10.0683,-10.0789,-10.0843,-10.0819,-10.0811,-10.0865,-10.0921,-10.0908,-10.0932,-10.1012,-10.0983,-10.0663,-10.0615,-10.057,-10.0531,-10.102,-10.102,-10.1317,-10.132,-10.1322]},{"header":{"parameterUnit":"m.s-1","parameterCategory":1,"la1":30.2991,"la2":30.254,"lo1":-89.0895,"lo2":-89.0444,"dy":0.0017,"dx":0.0017,"nx":28,"ny":28,"refTime":"2024-06-17T21:00:00:Z","depth":0,"parameterNumber":3,"parameterNumberName":"V-component_of_WINDS"},"data":[0,0,0,0,0,0,0,0,0,0,0,0,0,0,0,0,0,0,0,0,0,0,0,0,0,0,0,0,0,0,0,0,0,0,0,0,0,0,0,0,0,0,0,0,0,0,0,0,0,0,0,0,0,0,0,0,0,0,1.097,1.0971,0,1.1026,1.1026,1.1027,1.1041,1.1041,1.104,1.104,1.1095,1.1096,1.1098,0,0,0,0,0,0,0,0,0,0,0,0,0,1.0875,1.0877,1.097,1.0971,1.0971,1.1026,1.1026,1.1027,1.1041,1.1041,1.104,1.104,1.1094,1.1096,1.1098,0,0,0,0,0,0,0,0,0,0,0,0,0,1.0922,1.0877,1.097,1.0985,1.0987,1.1025,1.1026,1.1027,1.1041,1.1041,1.104,1.104,1.1093,1.1096,1.1098,1.1125,0,0,1.1107,1.1108,0,0,0,0,0,0,0,0,1.0919,1.0926,1.0982,1.0984,1.0986,1.1026,1.1013,1.106,1.1041,1.1021,1.104,1.104,1.1072,1.1076,1.1088,1.1128,1.113,1.1107,1.1108,1.111,1.111,0,0,0,0,0,0,0,1.0916,1.0923,1.0992,1.0983,1.0985,1.0989,1.0995,1.1022,1.1048,1.1022,1.1024,1.103,1.1073,1.1085,1.1089,1.1131,1.1107,1.1109,1.1111,1.1112,1.1197,1.1198,0,0,0,0,0,0,1.091,1.092,1.099,1.0994,1.0951,1.0991,1.0998,1.1014,1.1048,1.1053,1.103,1.1031,1.1081,1.1086,1.1091,1.1126,1.111,1.1112,1.1114,1.1197,1.1198,1.1198,0,0,0,0,0,0,1.0908,1.0917,1.0988,1.0957,1.0967,1.0993,1.1011,1.1015,1.1027,1.1054,1.1059,1.1038,1.1081,1.1087,1.1117,1.1128,1.1113,1.1116,1.1196,1.1197,1.1198,1.1195,0,0,0,0,0,0,1.0906,1.0916,1.0926,1.0958,1.0968,1.1013,1.1012,1.1017,1.1032,1.1033,1.1063,1.1067,1.1081,1.1113,1.112,1.1131,1.1118,1.1195,1.1196,1.1198,1.1194,1.1195,1.1197,0,0,0,0,0,1.0902,1.0922,1.0927,1.0935,1.0982,1.1014,1.102,1.1036,1.1033,1.1044,1.1062,1.1066,1.1126,1.1116,1.1124,1.1136,1.1194,1.1196,1.1198,1.1193,1.1195,1.1197,0,0,0,0,0,0,1.0889,1.0926,1.0932,1.0962,1.0985,1.1016,1.103,1.1037,1.106,1.106,1.1078,1.1085,1.1114,1.1128,1.1116,1.1165,1.116,1.1163,1.1154,1.1156,1.1158,1.1153,1.112,0,0,0,0,0,1.089,1.0914,1.0944,1.0968,1.098,1.1003,1.1017,1.1028,1.1052,1.1061,1.1081,1.1103,1.1128,1.1143,1.1166,1.1196,1.1204,1.1209,1.121,1.1211,1.1214,1.1232,1.1235,1.1203,1.1203,1.1203,0,0,1.0892,1.0915,1.0928,1.0966,1.0985,1.1009,1.1011,1.1035,1.1053,1.1065,1.1095,1.111,1.1136,1.1167,1.1181,1.118,1.1224,1.1213,1.1214,1.1216,1.1234,1.1237,1.124,1.1204,1.1204,1.1204,0,0,1.0907,1.0927,1.095,1.0969,1.0999,1.1015,1.102,1.1051,1.1062,1.1093,1.1103,1.1124,1.1164,1.1183,1.1198,1.1224,1.123,1.1231,1.1238,1.1256,1.1258,1.1261,1.1271,1.1274,1.1233,1.1233,1.1233,0,1.0905,1.0942,1.096,1.0985,1.1002,1.1016,1.104,1.1057,1.1092,1.1104,1.1102,1.1155,1.1173,1.1209,1.1216,1.1227,1.1234,1.1227,1.1257,1.1259,1.1262,1.1271,1.1275,1.1233,1.1233,1.1233,1.1233,0,1.0939,1.0964,1.0979,1.1014,1.1033,1.1057,1.1079,1.1096,1.1106,1.1122,1.1154,1.1177,1.1206,1.1216,1.1225,1.1254,1.1252,1.1253,1.1249,1.1264,1.1274,1.1278,1.1233,1.1233,1.1233,1.1233,0,0,1.0945,1.0993,1.0998,1.1015,1.1049,1.1069,1.1095,1.1125,1.1139,1.1163,1.1185,1.1221,1.1223,1.124,1.1251,1.1267,1.1287,1.1267,1.1268,1.127,1.1322,1.132,1.1324,1.1292,1.1292,1.1293,1.132,0,1.0965,1.1012,1.103,1.1068,1.1092,1.1107,1.1129,1.1153,1.1169,1.1192,1.121,1.1235,1.1235,1.1246,1.1262,1.1281,1.1298,1.128,1.1312,1.1313,1.1305,1.1329,1.1327,1.1351,1.1323,1.1324,1.1324,0,1.0994,1.1021,1.1061,1.1095,1.1106,1.1125,1.1155,1.1177,1.1205,1.1215,1.1236,1.1247,1.1275,1.1269,1.1308,1.1295,1.131,1.1321,1.1323,1.1326,1.1319,1.1333,1.1359,1.1363,1.133,1.133,1.1329,0,1.0996,1.1041,1.1072,1.1086,1.1126,1.114,1.1157,1.1184,1.1201,1.1228,1.1239,1.1268,1.1284,1.1306,1.1325,1.1319,1.1362,1.1357,1.1371,1.1371,1.1379,1.1378,1.1408,1.1388,1.1388,1.1388,1.1388,0,1.1016,1.104,1.1074,1.1092,1.1121,1.1142,1.1169,1.1187,1.1212,1.1235,1.1249,1.1269,1.1293,1.1317,1.1332,1.1363,1.1369,1.1379,1.1382,1.1378,1.1376,1.1387,1.1386,1.1389,1.1389,1.1389,1.1389,0,1.1022,1.1045,1.108,1.1116,1.1126,1.1145,1.1175,1.1194,1.1212,1.1241,1.1249,1.1277,1.1306,1.1327,1.1364,1.1375,1.1407,1.1411,1.1398,1.14,1.1413,1.1411,1.145,1.1457,1.1433,1.1433,1.1433,0,1.1033,1.1053,1.1091,1.1108,1.1126,1.1152,1.1171,1.1194,1.1212,1.1247,1.1262,1.1293,1.1318,1.1364,1.1388,1.1417,1.1421,1.1433,1.1425,1.142,1.1422,1.142,1.1423,1.1434,1.1434,1.1434,1.1434,0,1.1051,1.1062,1.1089,1.1121,1.1143,1.1169,1.1194,1.1207,1.1234,1.1255,1.1286,1.1306,1.1346,1.1376,1.1408,1.1425,1.1434,1.1436,1.1441,1.1436,1.1428,1.1433,1.1401,1.1435,1.1435,1.1435,1.1435,1.1435,1.106,1.1079,1.111,1.114,1.1162,1.1186,1.1207,1.1228,1.1255,1.1289,1.1301,1.1333,1.1362,1.1406,1.1424,1.145,1.1449,1.1456,1.1458,1.1459,1.1459,1.1425,1.1455,1.1455,1.1455,1.1455,1.1455,0,1.1079,1.11,1.1128,1.1165,1.1188,1.1197,1.1226,1.1245,1.1274,1.1301,1.1326,1.1363,1.1393,1.142,1.1451,1.1466,1.1472,1.1474,1.1473,1.1477,1.1457,1.145,1.1469,1.1469,1.1469,1.1469,1.1469,1.1469,1.1092,1.1124,1.114,1.1184,1.1205,1.1237,1.1254,1.1276,1.1298,1.1338,1.1364,1.1382,1.1409,1.1443,1.1471,1.1478,1.1489,1.1491,1.1499,1.148,1.1478,1.1476,1.147,1.1493,1.1493,1.1516,1.1517,1.1517]}]]